Piloten Info

Wichtige Hinweise:

  • Tower Frequenz 122,330 kHz - keine Landung ohne Funkkontakt
  • PPR Betrieb
  • Temporäre Hindernisse (Baukräne) nahe dem Flugplatz durch Bauarbeiten entlang der Nürnberger Straße (Östliche Seite).
  • Starts auf RWY 09 sind nicht gestattet. Start generell auf RWY 27. Bei Planung Rückenwinde berücksichtigen!
  • Bei Anflügen auf RWY 27 sind Hindernisse vorhanden, aus diesem Grund die versetzte Schwelle27!
  • Der Flugverein Neumarkt führt seine Starts generell auf RWY 27 und Landungen auf RWY09 durch.
  • Es besteht keine Tankmöglichkeit.

Diese Hinweis sind als Ergänzung / Hilfe zur regulären Flugplanung gedacht.

Auszüge aus AIP VFR ohne Gewähr - es gelten die offiziellen Veröffentlichungen.




Wind Infos (info ohne Gewähr - nicht geeicht)

Wind Speed
Wind Direction


METAR Informationen der nächstgelegenen Flughäfen


EDDN / Flughafen Nürnberg „Albrecht Dürer“

EDDN 020420Z AUTO 22005KT 180V250 9999 FEW016 12/10 Q1018 NOSIG

ETIC / Fliegerhorst Grafenwöhr AAF

ETIC 020422Z AUTO 00000KT 9999 FEW009 BKN015 BKN021 OVC038 09/09 A3005 RMK AO2 DZB01E03RAB03E17DZB17E22 CIG 015V019 BKN015 V SCT SLP181 $

ETIH / Fliegerhorst Hohenfels AAF

ETIH 020420Z AUTO 22003KT 9999 OVC010 11/10 A3009 RMK AO2 CIG 008V010 SLP193 PWINO $